CZ-6A DEB

Satellite information

Favourite Embed

Satellite Type and Status

DEBRISIN ORBIT

Key statistics

Satellite CZ-6A DEB at a glance.

Uptime

909

Days in orbit

Revolutions

≈ 14.2

Per day

Orbit

SSO

Sun Synchronous Orbit

Inclination

98.8

Latest

Satellite identification and parameters

Extended collection of information and parameters for CZ-6A DEB.

Object identification

Identified? True

Debris? True

Object name: CZ-6A DEB

International designator: 2022-151AAU

Object number (NORAD): 55896

Object ID (CCSDS): 55896

Country: PEOPLES REPUBLIC OF CHINA (PRC)

Current information (Y/N): Y

RCS size: SMALL

Orbital parameters

Period: 101.339 minutes

Inclination: 98.8124 deg

SMA: 7200.22 km

Apoapsis: 849.185 km

Periapsis: 794.985 km

RAAN: 136.1129 deg

Eccentricy: 0.0037638

Argument of periapsis: 16.3814 deg

Mean anomaly: 343.8569 deg

Mean motion: 14.20967464 rev/day

Mean motion (dot): 0.0000511 rev/day2

B* drag term: 0.0023609 1/REarth

Two-line elements (TLE)

Creation date: May 8, 2025, 3:01 a.m.

Reference frame: TEME

Reference center: EARTH

Epoch: May 7, 2025, 11:15 a.m. UTC

TLE line 0: 0 CZ-6A DEB

TLE line 1: 1 55896U 22151AAU 25127.46901863 .00005110 00000-0 23609-2 0 9997

TLE line 2: 2 55896 98.8124 136.1129 0037638 16.3814 343.8569 14.20967464122769

Live tracking on map

Real-time ground track for satellite CZ-6A DEB.

In-orbit conjunctions

A list of the most updated potential collisions computed for object CZ-6A DEB.

Target Orbit TCA Probability of collision Miss distance Type
CZ-6A DEB LEO 2024-12-24 03:10:56 0.0001938743 978.0 (m) DEBRIS
FENGYUN 1C DEB SSO 2024-09-26 01:44:43 0.0002443217 199.0 (m) DEBRIS

Associated space launch

Chinese satellite reported for atmospheric/ocean/environmental/spatial parameter research purposes, details TBD.

CZ-6A DEB was lifted into orbit during the mission ‘Long March 6A | Yunhai 3’, on board a Long March 6A space rocket.

The launch took place on Nov. 11, 2022, 10:52 p.m. from Launch Complex 9A.

For more information about the launch, click the button.

Launch to space Long March 6A | Yunhai 3
Long March 6A | Yunhai 3

Agency: N/A

Status: Launch Successful

Launch date: Nov. 11, 2022, 10:52 p.m. UTC

Rocket: Long March 6A

Launch pad: Launch Complex 9A

Location: Taiyuan Satellite Launch Center, People's Republic of China

...

Latest news about this satellite

There are no fresh news available about this satellite. Check back as we update our databases every day.


Newsletter sign-up

Weekly statistics, charts and insights to help you stay on top of the space industry.